Weather History for Saranac Lake, NY

Change the Weather History Date:

Friday, March 28, 2014

  Actual Average Record
Temperature  
Mean Temperature 35 °F 30 °F  
Max Temperature 42 °F 41 °F 64 °F (1949)
Min Temperature 28 °F 18 °F -2 °F (1965)
Degree Days  
Heating Degree Days 30 35  
Month to date heating degree days 1445 1154  
Since 1 July heating degree days 8429 7859  
Cooling Degree Days 0 0  
Month to date cooling degree days 0 0  
Year to date cooling degree days 0 0  
Moisture  
Dew Point 33 °F    
Average Humidity 89    
Maximum Humidity 100    
Minimum Humidity 78    
Precipitation  
Precipitation 0.36 in 0.09 in 0.40 in (1949)
Month to date precipitation 1.07 2.01  
Year to date precipitation 3.69 5.75  
Sea Level Pressure  
Sea Level Pressure 29.85 in    
Wind  
Wind Speed 10 mph (SW)    
Max Wind Speed 18 mph    
Max Gust Speed 23 mph    
Visibility 4 miles    
Events Fog , Rain , Snow    
T = Trace of Precipitation, MM = Missing Value Source: NWS Daily Summary

Daily Weather History Graph

Daily Weather History Graph

Search for Another Location

Airport:

Trip Planner

Search our weather history database for the weather conditions in past years. The results will help you decide how hot, cold, wet, or windy it might be!

Date:

Astronomy

Mar. 28, 2014 Rise Set
Actual Time 6:45 AM EDT 7:19 PM EDT
Civil Twilight 6:16 AM EDT 7:48 PM EDT
Nautical Twilight 5:41 AM EDT 8:23 PM EDT
Astronomical Twilight 5:05 AM EDT 8:58 PM EDT
Moon 5:19 AM EDT (3/28) 5:08 PM EDT (3/28)
Length of Visible Light 13h 32m
Length of Day
12h 33m
Waning Crescent, 6% of the Moon is Illuminated
Mar 28
Waning Crescent
Mar 30
New
Apr 7
First Quarter
Apr 15
Full
Apr 22
Last Quarter

Hourly Weather History & Observations

Time (EDT) Temp. Windchill Dew Point Humidity Pressure Visibility Wind Dir Wind Speed Gust Speed Precip Events Conditions
12:51 AM 27.0 °F 23.0 °F 24.1 °F 89% 30.05 in 8.0 mi WSW 3.5 mph - 0.00 in Snow Light Snow
1:51 AM 30.9 °F 23.5 °F 25.0 °F 79% 30.02 in 8.0 mi WSW 8.1 mph - 0.00 in   Overcast
2:51 AM 30.9 °F 21.7 °F 25.0 °F 79% 30.00 in 6.0 mi SW 11.5 mph - 0.00 in Snow Light Snow
3:02 AM 30.0 °F 20.5 °F 26.1 °F 85% 29.94 in 1.8 mi SW 11.5 mph - 0.00 in Snow Light Snow
3:17 AM 30.0 °F 21.1 °F 27.0 °F 88% 29.93 in 1.0 mi SW 10.4 mph - 0.01 in Snow Light Snow
3:51 AM 28.9 °F 20.4 °F 27.0 °F 92% 29.97 in 1.0 mi SW 9.2 mph - 0.01 in Snow Light Snow
3:57 AM 28.9 °F 21.1 °F 28.0 °F 96% 29.91 in 0.8 mi SW 8.1 mph - 0.01 in Snow Light Snow
4:05 AM 28.9 °F 21.1 °F 28.0 °F 96% 29.90 in 0.5 mi SW 8.1 mph - 0.02 in Fog , Snow Snow
4:19 AM 30.0 °F 21.1 °F 28.0 °F 92% 29.90 in 0.5 mi SW 10.4 mph - 0.03 in Fog , Snow Snow
4:30 AM 30.0 °F 21.1 °F 28.0 °F 92% 29.89 in 1.2 mi SW 10.4 mph - 0.03 in Snow Light Snow
4:43 AM 30.0 °F 21.1 °F 28.9 °F 96% 29.88 in 1.8 mi SW 10.4 mph - 0.04 in Snow Light Snow
4:51 AM 30.0 °F 22.4 °F 28.9 °F 96% 29.93 in 1.8 mi SW 8.1 mph - 0.04 in Snow Light Snow
4:56 AM 30.9 °F 23.5 °F 28.9 °F 92% 29.87 in 2.5 mi SW 8.1 mph - 0.00 in Snow Light Snow
5:13 AM 30.9 °F 25.2 °F 28.9 °F 92% 29.87 in 4.0 mi WSW 5.8 mph - 0.00 in Snow Light Snow
5:49 AM 32.0 °F 24.8 °F 30.2 °F 93% 29.86 in 2.0 mi SW 8.1 mph - 0.00 in Snow Light Snow
5:51 AM 32.0 °F 24.8 °F 30.0 °F 92% 29.91 in 2.0 mi SW 8.1 mph - 0.00 in Snow Light Snow
5:58 AM 32.0 °F 23.6 °F 30.0 °F 92% 29.86 in 2.5 mi SW 10.4 mph - 0.00 in Snow Light Snow
6:16 AM 32.0 °F 22.5 °F 30.0 °F 92% 29.86 in 1.2 mi SW 12.7 mph 21.9 mph 0.00 in Snow Light Snow
6:20 AM 32.0 °F 21.6 °F 30.0 °F 92% 29.86 in 1.0 mi SW 15.0 mph 21.9 mph 0.00 in Snow Light Snow
6:27 AM 32.0 °F 23.0 °F 30.0 °F 92% 29.86 in 0.8 mi SW 11.5 mph 23.0 mph 0.01 in Snow Light Snow
6:32 AM 32.0 °F 23.6 °F 30.9 °F 96% 29.86 in 1.0 mi SSW 10.4 mph 23.0 mph 0.01 in Snow Light Snow
6:43 AM 32.0 °F 24.2 °F 30.9 °F 96% 29.86 in 0.8 mi SW 9.2 mph - 0.02 in Snow Light Snow
6:51 AM 32.0 °F 23.0 °F 30.9 °F 96% 29.91 in 1.0 mi SSW 11.5 mph - 0.03 in Snow Light Snow
7:08 AM 33.1 °F 24.4 °F 30.9 °F 92% 29.85 in 3.0 mi SW 11.5 mph - 0.00 in Snow Light Snow
7:10 AM 33.1 °F 24.9 °F 30.9 °F 92% 29.85 in 2.0 mi SW 10.4 mph - 0.00 in Snow Light Snow
7:17 AM 33.1 °F 24.4 °F 30.9 °F 92% 29.85 in 1.2 mi SW 11.5 mph - 0.01 in Snow Light Snow
7:24 AM 33.1 °F 25.5 °F 30.9 °F 92% 29.84 in 3.0 mi SW 9.2 mph - 0.01 in Snow Light Snow
7:39 AM 33.1 °F 25.5 °F 30.9 °F 92% 29.84 in 4.0 mi SW 9.2 mph - 0.02 in Rain Light Rain
7:51 AM 33.1 °F 25.5 °F 32.0 °F 96% 29.88 in 4.0 mi SW 9.2 mph - 0.03 in Rain Light Rain
8:10 AM 34.0 °F 28.8 °F 33.1 °F 96% 29.82 in 4.0 mi WSW 5.8 mph - 0.01 in Rain Light Rain
8:51 AM 34.0 °F 29.8 °F 33.1 °F 96% 29.85 in 4.0 mi West 4.6 mph - 0.03 in Rain Light Rain
9:51 AM 35.1 °F 28.6 °F 33.1 °F 92% 29.85 in 6.0 mi WSW 8.1 mph - 0.01 in   Overcast
10:51 AM 36.0 °F 30.3 °F 34.0 °F 93% 29.82 in 8.0 mi WSW 6.9 mph - 0.00 in   Overcast
11:12 AM 37.0 °F 30.4 °F 34.0 °F 89% 29.77 in 8.0 mi WSW 9.2 mph - N/A   Overcast
11:22 AM 37.0 °F 29.3 °F 34.0 °F 89% 29.77 in 8.0 mi SW 11.5 mph - N/A   Overcast
11:51 AM 37.0 °F 29.3 °F 34.0 °F 89% 29.82 in 9.0 mi SW 11.5 mph - N/A   Overcast
12:11 PM 37.9 °F 31.5 °F 35.1 °F 89% 29.76 in 3.0 mi SW 9.2 mph - N/A   Overcast
12:19 PM 37.9 °F 31.5 °F 35.1 °F 89% 29.76 in 2.5 mi SW 9.2 mph - N/A   Overcast
12:36 PM 37.0 °F 29.8 °F 36.0 °F 96% 29.75 in 2.5 mi SW 10.4 mph - N/A   Overcast
12:48 PM 37.4 °F 30.8 °F 35.6 °F 93% 29.74 in 2.5 mi WSW 9.2 mph - N/A   Overcast
12:51 PM 37.9 °F 32.1 °F 36.0 °F 93% 29.79 in 2.5 mi SW 8.1 mph - N/A   Overcast
1:06 PM 37.9 °F 30.0 °F 36.0 °F 93% 29.74 in 3.0 mi SW 12.7 mph - N/A   Overcast
1:51 PM 37.9 °F 29.6 °F 36.0 °F 93% 29.80 in 3.0 mi SW 13.8 mph 23.0 mph 0.03 in Rain Rain
2:13 PM 37.9 °F 30.0 °F 36.0 °F 93% 29.75 in 3.0 mi SW 12.7 mph - 0.04 in Rain Rain
2:51 PM 39.0 °F 30.6 °F 37.0 °F 93% 29.78 in 4.0 mi SW 15.0 mph - 0.09 in Rain Rain
3:28 PM 39.0 °F 31.0 °F 37.0 °F 93% 29.73 in 2.5 mi SW 13.8 mph - 0.00 in Rain Light Rain
3:37 PM 39.0 °F 31.4 °F 37.0 °F 93% 29.73 in 6.0 mi SW 12.7 mph - 0.01 in Rain Light Rain
3:51 PM 39.0 °F 31.4 °F 37.0 °F 93% 29.78 in 9.0 mi SW 12.7 mph 21.9 mph 0.01 in   Overcast
4:19 PM 39.0 °F 31.8 °F 37.0 °F 93% 29.73 in 8.0 mi SW 11.5 mph - N/A   Overcast
4:51 PM 39.9 °F 33.4 °F 37.9 °F 93% 29.78 in 9.0 mi SW 10.4 mph - 0.00 in   Overcast
5:51 PM 39.0 °F 31.8 °F 37.9 °F 96% 29.78 in 7.0 mi SW 11.5 mph - 0.00 in Rain Light Rain
6:02 PM 39.9 °F 32.9 °F 37.9 °F 93% 29.74 in 7.0 mi SW 11.5 mph - 0.00 in   Overcast
6:13 PM 41.0 °F 33.9 °F 37.9 °F 89% 29.76 in 4.0 mi SW 12.7 mph - 0.01 in Rain Light Rain
6:51 PM 39.9 °F 34.5 °F 39.0 °F 97% 29.81 in 5.0 mi WSW 8.1 mph - 0.01 in Rain Light Rain
7:29 PM 39.9 °F 32.9 °F 37.9 °F 93% 29.78 in 5.0 mi SW 11.5 mph - 0.01 in Rain Light Rain
7:44 PM 39.9 °F 32.9 °F 37.9 °F 93% 29.78 in 7.0 mi SW 11.5 mph - 0.01 in   Overcast
7:51 PM 39.9 °F 33.4 °F 39.0 °F 97% 29.83 in 7.0 mi SW 10.4 mph - 0.01 in   Overcast
8:33 PM 41.0 °F 35.2 °F 39.0 °F 93% 29.83 in 4.0 mi SW 9.2 mph - 0.00 in Rain Light Rain
8:51 PM 41.0 °F 34.7 °F 39.0 °F 93% 29.89 in 5.0 mi WSW 10.4 mph - 0.01 in Rain Light Rain
9:48 PM 39.2 °F 33.6 °F 37.4 °F 93% 29.91 in 8.0 mi WSW 8.1 mph - 0.03 in Rain Light Rain
9:51 PM 39.9 °F 33.4 °F 37.9 °F 93% 29.95 in 8.0 mi WSW 10.4 mph - 0.03 in Rain Light Rain
10:01 PM 39.9 °F 32.9 °F 37.9 °F 93% 29.91 in 8.0 mi WSW 11.5 mph 20.7 mph 0.00 in Rain Light Rain
10:19 PM 39.0 °F 34.8 °F 37.9 °F 96% 29.93 in 5.0 mi WSW 5.8 mph - 0.00 in Rain Light Rain
10:26 PM 39.0 °F 32.3 °F 37.9 °F 96% 29.93 in 5.0 mi WSW 10.4 mph - 0.00 in Rain Light Rain
10:51 PM 39.0 °F 34.0 °F 37.9 °F 96% 29.99 in 5.0 mi WSW 6.9 mph - 0.00 in Rain Light Rain
11:45 PM 37.4 °F 30.8 °F 37.4 °F 100% 30.01 in 2.5 mi NW 9.2 mph - 0.01 in Snow Light Snow
11:51 PM 37.0 °F 29.8 °F 37.0 °F 100% 30.06 in 1.8 mi NW 10.4 mph 17.3 mph 0.01 in Snow Light Snow